This is the latest recevied weather packets stored in our database for station/object AC1IX. If no packets are shown the sender has not sent any weather packets the latest 10 day(s).
| Time | Temp. | Humidity | Pressure | Rain* | Wind** | Luminosity | Snow |
|---|---|---|---|---|---|---|---|
| 1777637288 | 5.56° C | 89% | 1012.3 hPa | 0 mm | - | 73 W/m² | - |
| 1777636984 | 5° C | 91% | 1012.2 hPa | 0 mm | - | 86 W/m² | - |
| 1777636680 | 5.56° C | 93% | 1012.4 hPa | 0 mm | - | 72 W/m² | - |
| 1777636377 | 5° C | 94% | 1012.2 hPa | 0 mm | - | 96 W/m² | - |
| 1777636076 | 5° C | 94% | 1012.4 hPa | 0 mm | - | 82 W/m² | - |
| 1777635772 | 4.44° C | 95% | 1012.1 hPa | 0 mm | - | 96 W/m² | - |
| 1777635469 | 4.44° C | 96% | 1011.9 hPa | 0 mm | - | 67 W/m² | - |
| 1777635166 | 4.44° C | 96% | 1012.1 hPa | 0 mm | - | 60 W/m² | - |
| 1777634862 | 4.44° C | 95% | 1012.1 hPa | 0 mm | - | 70 W/m² | - |
| 1777634560 | 4.44° C | 95% | 1012.3 hPa | 0 mm | - | 52 W/m² | - |
| 1777634257 | 4.44° C | 94% | 1012 hPa | 0 mm | - | 35 W/m² | - |
| 1777633953 | 4.44° C | 94% | 1012 hPa | 0 mm | - | 31 W/m² | - |
| 1777633650 | 5° C | 94% | 1011.9 hPa | 0 mm | - | 31 W/m² | - |
| 1777633348 | 5° C | 95% | 1011.9 hPa | 0 mm | - | 43 W/m² | - |
| 1777633046 | 5° C | 95% | 1012 hPa | 0 mm | - | 32 W/m² | - |
| 1777632742 | 4.44° C | 95% | 1011.9 hPa | 0 mm | - | 34 W/m² | - |
| 1777632438 | 4.44° C | 95% | 1011.9 hPa | 0 mm | - | 16 W/m² | - |
| 1777632135 | 4.44° C | 96% | 1011.7 hPa | 0 mm | - | 13 W/m² | - |
| 1777631833 | 4.44° C | 96% | 1012 hPa | 0 mm | - | 9 W/m² | - |
| 1777631531 | 4.44° C | 96% | 1011.7 hPa | 0 mm | - | 7 W/m² | - |
| 1777631228 | 4.44° C | 97% | 1011.8 hPa | 0 mm | - | 6 W/m² | - |
| 1777630925 | 3.89° C | 98% | 1011.8 hPa | 0 mm | - | 5 W/m² | - |
| 1777630620 | 4.44° C | 99% | 1011.7 hPa | 0 mm | - | 5 W/m² | - |
| 1777630317 | 3.89° C | 99% | 1011.5 hPa | 0 mm | - | 3 W/m² | - |
| 1777630015 | 3.89° C | 99% | 1011.6 hPa | 0 mm | - | 3 W/m² | - |
* Rain latest hour (hover to see other rain measurements)
** Current wind speed in m/s (hover to see current wind gust speed)